DELTA 1 DEB, 42629

Orbit data source: Space-Track

DELTA 1 DEB, 42629 is space debris in SSO originally from a launch on Thu, 12 Jun 1975 UTC launched from the Air Force Western Test Range (AFWTR). Debris objects in space refer to the collection of defunct objects orbiting the Earth. Examples of debris include non-operational satellites, rocket bodies, and fragments generated from explosions, collisions, or faulty payload assembly.

Loading next visibility...
Identifier
42629, 1975-052LN
Orbit
SSO
Country
Flag of USUS
Related business
Manufacturer
Unknown
Mission
Spacecraft
Bus & Motor
Unknown
Mass
Unknown
Launch date (UTC)
1975-06-12 (51 years ago)
Launch vehicle
Unknown
Launch site
Air Force Western Test Range (AFWTR)
Object type
Payload
Rocket body
Debris
Shape & HBR
Unknown shape, 0.1 m
Radar Cross Section
Small (<0.1 m²)

Expand to show TLE details & history
Last TLE update: 5 days ago

TLE from 5 days ago
0 DELTA 1 DEB
1 42629U 75052LN  26168.05930969  .00000040  00000-0  17025-3 0  9998
2 42629  99.8734 291.7240 0074246  38.0363 322.5970 13.31090866 67385
Epoch: 2026-06-17T01:25Z
TLE epoch observation values (Epoch: 2026-06-17T01:25:24.357Z)
Latitude
-0.00004°
Longitude
5.05009°
Altitude
1,101.194 km
Speed
7.323 km/s
True Right ascension
19h 26m 53s
True Declination
0° 00' 00"
Sunlit
Object was in full shadow at epoch
Visualization orbit readout
Latitude
Unknown
Longitude
Unknown
Altitude
Unknown
Speed
Unknown
Apparent Right ascension
Unknown
Apparent Declination
Unknown
Sunlit
N/A
Visualization observer readout
Local Sidereal Time
21:41:22
Azimuth
Unknown
Elevation
Unknown
Doppler factor
Unknown
Orbital elements
Apogee altitude
1,195.806 km
Perigee altitude
1,084.168 km
Semi-major axis
7,518.124 km
Eccentricity
0.00742
Inclination
99.8734°
RAAN
291.724°
Arg. of periapsis
38.0363°
True anomaly
322.07638°
Mean anomaly
322.597°
Eccentric anomaly
322.33708°
Mean motion
3.3295 °/min
Orbital period
108.12 mins
BSTAR
0.00017025
Loading maneuver chart data...
Computing Atmospheric mass density...
Loading historical data...
Loading historical data...
Loading historical data...
Loading historical data...
Loading historical data...
Loading historical data...
Loading historical data...

Documentation

Showing up to 5 results
|